Simultaneous Nadir Overpasses (SNOs) Predictions

Prediction of SNOs between AQUA and METOP-B Satellite Orbit:

Table of predicted SNOs for the next 14.0 days since TLE Epoch: 6/27/2014
Index Date (AQUA) Time (AQUA) Lat,Lon (AQUA) SZA (AQUA ) Date (METOP-B) Time (METOP-B) Lat,Lon (METOP-B) SZA (METOP-B ) Distance(km) Time Diff (sec)
1 06/29/2014 07:47:40 -73.75,-122.42 129.45 06/29/2014 07:46:38 -73.76,-122.35 129.43 2.79 62
2 06/29/2014 08:37:09 73.82, 45.06 50.63 06/29/2014 08:37:17 73.83, 45.15 50.64 3.07 8
3 06/29/2014 09:26:41 -74.15,-148.05 129.01 06/29/2014 09:27:51 -74.18,-146.66 129.04 42.30 70
4 07/02/2014 03:21:56 -73.76, -56.01 129.26 07/02/2014 03:20:58 -73.74, -55.99 129.27 2.07 58
5 07/02/2014 04:11:24 73.78, 111.57 50.77 07/02/2014 04:11:37 73.80, 111.49 50.80 3.42 13
6 07/02/2014 05:01:00 -74.32, -82.01 128.65 07/02/2014 05:02:08 -74.31, -79.94 128.74 62.25 68
7 07/04/2014 22:56:12 -73.73, 10.48 129.05 07/04/2014 22:55:18 -73.76, 10.48 129.01 3.86 54
8 07/04/2014 23:45:41 73.81, 177.94 51.04 07/04/2014 23:45:57 73.82, 177.94 51.05 0.96 16
9 07/05/2014 00:35:19 -74.44, -15.88 128.27 07/05/2014 00:36:25 -74.48, -13.09 128.35 83.15 66
10 07/07/2014 18:30:29 -73.76, 76.83 128.72 07/07/2014 18:29:39 -73.73, 76.82 128.74 3.43 50
11 07/07/2014 19:19:57 73.80,-115.61 51.32 07/07/2014 19:20:17 73.83,-115.62 51.35 3.65 20
12 07/10/2014 14:04:44 -73.76, 143.27 128.39 07/10/2014 14:03:58 -73.75, 143.27 128.39 1.18 46
13 07/10/2014 14:54:13 73.85, -49.30 51.72 07/10/2014 14:54:36 73.84, -49.18 51.70 3.77 23




NCC Satellite Simultaneous Nadir Overpasses (SNOs) Prediction Service
